N8JLK-WX Weather Reports


Display with metric or nautical units.
time (UTC)temp
F
wind
direction
speed
MPH
gust
MPH
rain 1hr
in
rain 24hr
in
rain mn
in
humidity
%
barometer
mb
20260510093518 45 159 2.0 4.0 0.00 0.00 0.00 80 1013.8
20260510092553 45 0.0 0.0 0.00 0.00 0.00 80 1013.6
20260510091527 45 90 0.0 1.0 0.00 0.00 0.00 80 1013.4
20260510090525 45 0.0 0.0 0.00 0.00 0.00 80 1013.3
20260510085544 45 0.0 0.0 0.00 0.00 0.00 79 1013.3
20260510084525 45 0.0 0.0 0.00 0.00 0.00 79 1013.3
20260510083522 46 0.0 0.0 0.00 0.00 0.00 79 1012.9
20260510082517 46 0.0 0.0 0.00 0.00 0.00 78 1012.7
20260510081530 46 0.0 0.0 0.00 0.00 0.00 78 1012.7
20260510080525 46 0.0 0.0 0.00 0.00 0.00 78 1012.5
20260510075515 47 0.0 0.0 0.00 0.00 0.00 78 1012.3
20260510074518 47 0.0 0.0 0.00 0.00 0.00 78 1012.2
20260510073530 48 0.0 0.0 0.00 0.00 0.00 78 1012.2
20260510072525 48 158 0.0 2.0 0.00 0.00 0.00 78 1012.0
20260510071520 48 68 0.0 2.0 0.00 0.00 0.00 79 1011.8
20260510070515 49 103 1.0 2.0 0.00 0.00 0.00 79 1011.7
20260510065524 49 117 1.0 3.0 0.00 0.00 0.00 80 1011.7
20260510064519 49 248 0.0 1.0 0.00 0.00 0.00 81 1011.5
20260510063526 49 109 1.0 2.0 0.00 0.00 0.00 82 1011.6
20260510062521 49 65 1.0 2.0 0.00 0.00 0.00 83 1011.6
20260510061516 50 83 1.0 2.0 0.00 0.00 0.00 83 1011.5
20260510060518 50 74 2.0 4.0 0.00 0.00 0.00 84 1011.3
20260510055532 51 103 0.0 2.0 0.00 0.00 0.00 84 1011.1
20260510054527 52 88 2.0 3.0 0.00 0.00 0.00 85 1011.0
20260510053523 52 86 2.0 3.0 0.00 0.00 0.00 86 1010.9
20260510052517 52 113 0.0 1.0 0.00 0.00 0.00 86 1010.8
20260510051552 52 77 1.0 2.0 0.00 0.00 0.00 86 1010.4
20260510050528 52 63 1.0 3.0 0.00 0.00 0.00 86 1010.2
20260510045522 52 108 1.0 4.0 0.00 0.00 0.00 86 1010.0
20260510044517 52 98 3.0 4.0 0.00 0.00 0.00 86 1009.3
20260510043532 52 104 2.0 3.0 0.00 0.00 0.00 86 1009.1
20260510042528 52 129 2.0 3.0 0.00 0.00 0.00 86 1008.9
20260510041523 52 106 3.0 4.0 0.00 0.00 0.00 86 1008.9
20260510040517 52 119 2.0 2.0 0.00 0.00 0.00 86 1008.9
20260510035531 53 96 1.0 3.0 0.00 0.00 0.00 86 1009.0
20260510034527 53 62 3.0 5.0 0.00 0.00 0.00 86 1009.1
20260510033516 53 105 3.0 5.0 0.00 0.00 0.00 87 1009.1
20260510032517 53 89 3.0 4.0 0.00 0.00 0.00 87 1009.1
20260510031531 52 94 3.0 5.0 0.00 0.00 0.00 87 1009.1
20260510030526 52 115 1.0 3.0 0.00 0.00 0.00 89 1009.0
20260510025521 52 0.0 2.0 0.00 0.00 0.00 89 1008.9
20260510024538 52 85 1.0 3.0 0.00 0.00 0.00 90 1008.9
20260510023650 52 86 2.0 4.0 0.00 0.00 0.00 91 1009.6
20260510022540 51 70 4.0 7.0 0.00 0.00 0.00 91 1008.7
20260510021527 51 0.0 0.0 0.00 0.00 0.00 90 1008.7
20260510020523 51 0.0 0.0 0.00 0.00 0.00 90 1008.7
20260510015517 51 0.0 0.0 0.00 0.00 0.00 90 1008.6
20260510014519 51 0.0 0.0 0.00 0.00 0.00 90 1008.4
20260510013532 51 103 1.0 2.0 0.00 0.00 0.00 89 1008.5
20260510012528 51 75 1.0 3.0 0.00 0.00 0.00 89 1008.4
20260510011523 51 90 1.0 3.0 0.00 0.00 0.00 89 1008.3
20260510010519 51 68 0.0 2.0 0.00 0.00 0.00 89 1008.2
20260510005553 52 101 0.0 2.0 0.00 0.00 0.00 89 1008.1
20260510004527 52 43 1.0 4.0 0.00 0.00 0.00 90 1008.1
20260510003523 52 114 1.0 3.0 0.00 0.00 0.00 90 1008.2
20260510002519 52 97 2.0 3.0 0.00 0.00 0.00 90 1008.0
20260510001532 52 92 1.0 3.0 0.00 0.00 0.00 91 1008.0
20260510000527 52 138 3.0 7.0 0.00 0.00 0.00 90 1007.9
20260509235522 52 87 2.0 4.0 0.00 0.00 0.00 90 1007.8
20260509234518 52 105 2.0 4.0 0.00 0.00 0.00 89 1008.0
20260509233525 53 82 2.0 4.0 0.00 0.00 0.00 88 1008.2
20260509232527 53 104 3.0 4.0 0.00 0.00 0.00 86 1008.5
20260509231522 54 85 3.0 5.0 0.00 0.00 0.00 82 1007.5
20260509230532 56 84 2.0 3.0 0.00 0.00 0.00 75 1007.8
20260509225533 59 84 3.0 5.0 0.00 0.00 0.00 70 1008.2
20260509224528 64 75 6.0 10.0 0.00 0.00 0.00 57 1006.5
20260509223522 65 68 4.0 7.0 0.00 0.00 0.00 50 1005.3
20260509222521 65 77 4.0 6.0 0.00 0.00 0.00 50 1005.6
20260509221532 65 104 4.0 7.0 0.00 0.00 0.00 50 1005.6
20260509220522 66 77 5.0 9.0 0.00 0.00 0.00 49 1005.6
20260509215517 66 101 5.0 8.0 0.00 0.00 0.00 50 1005.4
20260509214525 66 82 7.0 8.0 0.00 0.00 0.00 50 1005.3
20260509213520 66 149 8.0 11.0 0.00 0.00 0.00 50 1005.3
20260509212536 66 56 6.0 10.0 0.00 0.00 0.00 50 1005.4
20260509211517 66 103 8.0 18.0 0.00 0.00 0.00 51 1005.6
20260509210613 66 85 5.0 7.0 0.00 0.00 0.00 51 1005.8
20260509205526 66 114 5.0 11.0 0.00 0.00 0.00 50 1005.8
20260509204528 66 144 6.0 10.0 0.00 0.00 0.00 51 1006.0
20260509203528 66 78 8.0 13.0 0.00 0.00 0.00 51 1006.2
20260509202519 66 115 7.0 10.0 0.00 0.00 0.00 51 1006.3
20260509201533 67 67 7.0 11.0 0.00 0.00 0.00 49 1006.5
20260509200537 67 80 5.0 12.0 0.00 0.00 0.00 48 1006.6
20260509195526 67 133 5.0 8.0 0.00 0.00 0.00 50 1006.7
20260509194521 67 90 5.0 8.0 0.00 0.00 0.00 51 1006.7
20260509193527 67 70 7.0 10.0 0.00 0.00 0.00 50 1007.1
20260509192523 67 107 8.0 10.0 0.00 0.00 0.00 51 1007.1
20260509191517 68 126 5.0 8.0 0.00 0.00 0.00 50 1007.3
20260509190518 66 102 5.0 7.0 0.00 0.00 0.00 51 1007.4
20260509185533 67 106 6.0 14.0 0.00 0.00 0.00 52 1007.5
20260509184528 66 115 5.0 7.0 0.00 0.00 0.00 52 1007.5
20260509183523 67 83 6.0 9.0 0.00 0.00 0.00 49 1007.5
20260509182518 67 141 5.0 8.0 0.00 0.00 0.00 49 1007.4
20260509181531 67 104 5.0 10.0 0.00 0.00 0.00 49 1007.3
20260509180527 67 72 5.0 9.0 0.00 0.00 0.00 50 1007.4
20260509175542 67 100 4.0 7.0 0.00 0.00 0.00 52 1007.5
20260509174517 66 79 4.0 6.0 0.00 0.00 0.00 50 1007.8
20260509173531 68 58 6.0 9.0 0.00 0.00 0.00 50 1007.7
20260509172526 67 92 4.0 6.0 0.00 0.00 0.00 51 1007.6
20260509171543 67 81 4.0 7.0 0.00 0.00 0.00 52 1007.8
20260509170517 66 90 5.0 9.0 0.00 0.00 0.00 53 1007.7
20260509165531 66 99 4.0 6.0 0.00 0.00 0.00 53 1007.7
20260509164525 65 86 3.0 5.0 0.00 0.00 0.00 57 1007.7
20260509163521 64 82 4.0 5.0 0.00 0.00 0.00 58 1007.9
20260509162518 64 101 5.0 6.0 0.00 0.00 0.00 57 1008.1
20260509161530 64 82 3.0 4.0 0.00 0.00 0.00 59 1008.2
20260509160526 64 83 4.0 6.0 0.00 0.00 0.00 59 1008.3
20260509155523 63 89 3.0 5.0 0.00 0.00 0.00 64 1008.3
20260509154535 61 82 3.0 5.0 0.00 0.00 0.00 68 1008.4
20260509153523 59 90 2.0 3.0 0.00 0.00 0.00 69 1008.5
20260509152524 60 95 1.0 3.0 0.00 0.00 0.00 72 1008.3
20260509151525 59 120 2.0 4.0 0.00 0.00 0.00 75 1008.3
20260509150520 57 92 2.0 4.0 0.00 0.00 0.00 78 1008.3
20260509145515 57 73 2.0 4.0 0.00 0.00 0.00 79 1008.3
20260509144529 56 92 2.0 5.0 0.00 0.00 0.00 82 1008.3
20260509143520 55 99 2.0 4.0 0.00 0.00 0.00 84 1008.3
20260509142520 54 91 2.0 4.0 0.00 0.00 0.00 84 1008.3
20260509141529 54 104 2.0 4.0 0.00 0.00 0.00 84 1008.5
20260509140524 55 82 3.0 4.0 0.00 0.00 0.00 85 1008.5
20260509135547 54 91 3.0 4.0 0.00 0.00 0.00 86 1008.4
20260509134521 54 77 2.0 5.0 0.00 0.00 0.00 87 1008.3
20260509133533 54 122 2.0 4.0 0.00 0.00 0.00 90 1008.6
20260509132525 53 111 1.0 5.0 0.00 0.00 0.00 93 1008.4
20260509131522 52 118 3.0 6.0 0.00 0.00 0.00 93 1008.3
20260509130552 51 111 1.0 3.0 0.00 0.00 0.00 94 1008.4
20260509125521 51 102 2.0 4.0 0.00 0.00 0.00 95 1008.5
20260509124516 51 76 2.0 7.0 0.00 0.00 0.00 95 1008.5
20260509123518 50 100 3.0 5.0 0.00 0.00 0.00 96 1008.7
20260509122532 50 102 2.0 3.0 0.00 0.00 0.00 97 1008.9
20260509121528 50 124 1.0 3.0 0.00 0.00 0.00 97 1008.7
20260509120524 50 98 2.0 4.0 0.00 0.00 0.00 97 1008.7
20260509115519 49 106 2.0 3.0 0.00 0.00 0.00 97 1008.6
20260509114533 49 95 3.0 4.0 0.00 0.00 0.00 97 1008.8
20260509113548 49 100 1.0 3.0 0.00 0.00 0.00 97 1008.7
20260509112523 49 72 2.0 4.0 0.00 0.00 0.00 97 1008.6
20260509111523 49 96 2.0 3.0 0.00 0.00 0.00 97 1008.6
20260509110559 49 113 1.0 3.0 0.00 0.00 0.00 97 1008.5
20260509105528 49 105 2.0 3.0 0.00 0.00 0.00 97 1008.4
20260509104522 49 130 1.0 2.0 0.00 0.00 0.00 97 1008.5
20260509103540 49 133 2.0 3.0 0.00 0.00 0.00 97 1008.5
20260509102520 48 135 1.0 2.0 0.00 0.00 0.00 97 1008.5
20260509101533 48 117 2.0 3.0 0.00 0.00 0.00 97 1008.6
20260509100529 48 146 1.0 3.0 0.00 0.00 0.00 97 1008.6
20260509095524 48 103 1.0 3.0 0.00 0.00 0.00 97 1008.5
20260509094539 48 118 3.0 4.0 0.00 0.00 0.00 97 1008.7